Content
SEND FEEDBACK

Daily
Averages
Monthly
Summary
United States of America

ASHEVILLE, NORTH CAROLINA


Home > North America > United States > North Carolina
Elevation: 682 meters     Latitude: 35 36N     Longitude: 082 32W

WEATHER
 
SELECT A DAY
Number of Records: 225,823;   Date Range: 1/1/95 - 7/29/14
 
SHARE

PRINT THIS DATA

[ ← Previous Day ]
WEATHER ALMANAC - 25 DECEMBER, 2013
[ Next Day → ]
[ °F ]   °C
Weather ElementAverageHighLow
Temperature-2.9 °C2.8 °C (2:54 pm)-7.8 °C (4:54 am)
Dewpoint-10.1 °C-7.8 °C (8:54 am)-13.3 °C (11:54 am)
Humidity62.2 %88 % (4:54 am)34 % (2:54 pm)
Barometer1029.8 hPa1032.8 hPa (9:54 am)1027.8 hPa (11:54 pm)
Wind Speed4.2 km/h13 km/h (10:54 am)
Weather ElementAverage
Visibility16.1 km
Wind DirectionENE (51.3 °)

Weather ElementTotal
Precipitation---
Heating Degree Days20.8 (Base 18.3)
Averaged from 23 records on 25 December, 2013
WEATHER CONDITIONS BREAKOUT
WIND DIRECTION BREAKOUT
WEATHER BY HOUR - 25 DECEMBER, 2013
[ °F ]   °C
Local TimeTemperatureDewpointHumidityBarometerVisibilityWind DirectionWind SpeedGust SpeedPrecipitationEventsConditions
1:54 AM-6.1 °C-10 °C74 %1029.5 hPa16.1 kmCalmClear
2:54 AM-6.7 °C-9.4 °C81 %1030.1 hPa16.1 kmCalmClear
3:54 AM-7.2 °C-9.4 °C85 %1029.8 hPa16.1 kmCalmClear
4:54 AM-7.8 °C-9.4 °C88 %1030.1 hPa16.1 kmCalmClear
5:54 AM-7.8 °C-9.4 °C88 %1030.8 hPa16.1 kmCalmClear
6:54 AM-7.8 °C-9.4 °C88 %1031.8 hPa16.1 kmCalmClear
7:54 AM-7.2 °C-8.9 °C88 %1032.2 hPa16.1 kmCalmClear
8:54 AM-5.6 °C-7.8 °C85 %1032.5 hPa16.1 kmSSE (150°)9.3 km/hClear
9:54 AM-3.3 °C-7.8 °C71 %1032.8 hPa16.1 kmSSE (160°)9.3 km/hClear
10:54 AM-1.7 °C-9.4 °C56 %1032.5 hPa16.1 kmSouth (170°)13 km/hClear
11:54 AM0 °C-13.3 °C37 %1031.2 hPa16.1 kmSSE (150°)13 km/hClear
12:54 PM1.1 °C-12.8 °C35 %1029.8 hPa16.1 kmSouth (170°)11.1 km/hClear
1:54 PM1.7 °C-11.7 °C37 %1028.8 hPa16.1 kmCalmClear
2:54 PM2.8 °C-11.7 °C34 %1028.1 hPa16.1 kmESE (120°)9.3 km/hClear
3:54 PM2.8 °C-11.7 °C34 %1028.1 hPa16.1 kmESE (120°)9.3 km/hClear
4:54 PM2.2 °C-11.7 °C36 %1028.4 hPa16.1 kmVariable5.6 km/hClear
5:54 PM-0.6 °C-11.1 °C46 %1028.8 hPa16.1 kmVariable7.4 km/hClear
6:54 PM-0.6 °C-12.2 °C42 %1028.8 hPa16.1 kmCalmClear
7:54 PM-2.2 °C-9.4 °C58 %1028.8 hPa16.1 kmCalmClear
8:54 PM-2.2 °C-10.6 °C53 %1029.1 hPa16.1 kmCalmClear
9:54 PM-3.3 °C-9.4 °C63 %1029.1 hPa16.1 kmCalmClear
10:54 PM-4.4 °C-8.3 °C75 %1028.8 hPa16.1 kmCalmClear
11:54 PM-4.4 °C-7.8 °C77 %1027.8 hPa16.1 kmSE (140°)7.4 km/hClear
Hourly data recorded from KAVL, located 0 kilometers away from Asheville, North Carolina







STORIES FROM OUR PARTNERS